Weather History for Kununurra, WE

Change the Weather History Date:

Monday, September 16, 2013

  Actual Average Record
Temperature  
Mean Temperature 84 °F -  
Max Temperature 101 °F - - ()
Min Temperature 68 °F - - ()
Cooling Degree Days 20    
Growing Degree Days 34 (Base 50)    
Moisture  
Dew Point 53 °F    
Average Humidity 45    
Maximum Humidity 94    
Minimum Humidity 6    
Precipitation  
Precipitation 0.00 in - - ()
Sea Level Pressure  
Sea Level Pressure 29.81 in    
Wind  
Wind Speed 5 mph ()    
Max Wind Speed 14 mph    
Max Gust Speed -    
Visibility 6.5 miles    
Events      
T = Trace of Precipitation, MM = Missing Value Source: Averaged Metar Reports

Daily Weather History Graph

Daily Weather History Graph

Search for Another Location

Airport:

Trip Planner

Search our weather history database for the weather conditions in past years. The results will help you decide how hot, cold, wet, or windy it might be!

Date:

Astronomy

Sep. 16, 2013 Rise Set
Actual Time 5:19 AM AWST 5:20 PM AWST
Civil Twilight 4:58 AM AWST 5:42 PM AWST
Nautical Twilight 4:33 AM AWST 6:07 PM AWST
Astronomical Twilight 4:08 AM AWST 6:32 PM AWST
Moon 2:17 PM AWST (9/16) 2:20 AM AWST (9/16)
Length of Visible Light 12h 43m
Length of Day
12h 00m
Waxing Gibbous, 86% of the Moon is Illuminated
Sep 16
Waxing Gibbous
Sep 19
Full
Sep 27
Last Quarter
Oct 5
New
Oct 12
First Quarter

Hourly Weather History & Observations

Time (AWST) Temp. Heat Index Dew Point Humidity Pressure Visibility Wind Dir Wind Speed Gust Speed Precip Events Conditions
12:00 AM 72 °F - 68 °F 83% 29.82 in - West 3.5 mph - -  
12:00 AM 73.4 °F - 68.0 °F 83% 29.83 in 6.2 mi West 3.5 mph - N/A   Unknown
12:30 AM 73.4 °F - 69.8 °F 88% 29.83 in 6.2 mi SSW 1.2 mph - N/A   Scattered Clouds
1:00 AM 73.4 °F - 69.8 °F 88% 29.83 in 6.2 mi East 4.6 mph - N/A   Unknown
1:30 AM 73.4 °F - 69.8 °F 88% 29.80 in 6.2 mi East 4.6 mph - N/A   Unknown
2:00 AM 71 °F - 68 °F 87% 29.81 in - Calm Calm - -  
2:00 AM 71.6 °F - 68.0 °F 88% 29.80 in 6.2 mi Calm Calm - N/A   Unknown
2:30 AM 73.4 °F - 69.8 °F 88% 29.80 in 6.2 mi South 4.6 mph - N/A   Unknown
3:00 AM 72 °F - 69 °F 88% 29.80 in - SSE 2.3 mph - -  
3:00 AM 71.6 °F - 69.8 °F 94% 29.80 in 6.2 mi SSE 2.3 mph - N/A   Unknown
3:30 AM 71.6 °F - 68.0 °F 88% 29.80 in 6.2 mi Calm Calm - N/A   Unknown
4:00 AM 71.6 °F - 69.8 °F 94% 29.80 in 6.2 mi SE 4.6 mph - N/A   Unknown
4:30 AM 69.8 °F - 68.0 °F 94% 29.80 in 5.6 mi Calm Calm - N/A   Unknown
5:00 AM 69.8 °F - 66.2 °F 88% 29.83 in 6.2 mi SSE 3.5 mph - N/A   Unknown
5:30 AM 69.8 °F - 68.0 °F 94% 29.83 in 6.2 mi Calm Calm - N/A   Unknown
6:00 AM 71 °F - 69 °F 89% 29.85 in 12 mi Calm Calm - -   Partly Cloudy
6:00 AM 71.6 °F - 68.0 °F 88% 29.83 in 6.2 mi Calm Calm - N/A   Unknown
6:30 AM 77.0 °F - 71.6 °F 83% 29.86 in 5.6 mi Calm Calm - N/A   Unknown
7:00 AM 80.6 °F 83.9 °F 69.8 °F 70% 29.86 in 6.2 mi East 3.5 mph - N/A   Unknown
7:30 AM 84.2 °F 85.0 °F 62.6 °F 48% 29.86 in 6.2 mi SE 6.9 mph - N/A   Unknown
8:00 AM 88 °F - 55 °F 23% 29.88 in - SSE 8.1 mph - -  
8:00 AM 87.8 °F 86.1 °F 55.4 °F 33% 29.89 in 6.2 mi SSE 8.1 mph - N/A   Unknown
8:30 AM 91.4 °F - 41.0 °F 17% 29.89 in 6.2 mi SSE 11.5 mph - N/A   Unknown
9:00 AM 94 °F - 36 °F 6% 29.88 in 12 mi SE 13.8 mph - -   Partly Cloudy
9:00 AM 93.2 °F - 35.6 °F 13% 29.89 in 6.2 mi SE 13.8 mph - N/A   Unknown
9:30 AM 93.2 °F - 33.8 °F 12% 29.89 in 6.2 mi SSE 12.7 mph - N/A   Unknown
10:00 AM 95.0 °F - 35.6 °F 12% 29.86 in 6.2 mi SSE 11.5 mph - N/A   Unknown
10:30 AM 95.0 °F - 37.4 °F 13% 29.86 in 6.2 mi SSE 11.5 mph - N/A   Unknown
11:00 AM 97 °F - 37 °F 6% 29.84 in - SSE 9.2 mph - -  
11:00 AM 96.8 °F - 37.4 °F 13% 29.83 in 6.2 mi SSE 9.2 mph - N/A   Unknown
11:30 AM 96.8 °F - 35.6 °F 12% 29.83 in 6.2 mi South 12.7 mph - N/A   Unknown
12:00 PM 97 °F - 37 °F 6% 29.81 in - South 10.4 mph - -  
12:00 PM 96.8 °F - 37.4 °F 13% 29.80 in 6.2 mi South 10.4 mph - N/A   Unknown
12:30 PM 98.6 °F - 35.6 °F 11% 29.80 in 6.2 mi South 10.4 mph - N/A   Unknown
1:00 PM 98.6 °F - 35.6 °F 11% 29.77 in 6.2 mi South 8.1 mph - N/A   Unknown
1:30 PM 98.6 °F - 35.6 °F 11% 29.77 in 6.2 mi South 10.4 mph - N/A   Unknown
2:00 PM 99 °F - 37 °F 6% 29.76 in - SE 9.2 mph - -  
2:00 PM 98.6 °F - 37.4 °F 12% 29.74 in 6.2 mi SE 9.2 mph - N/A   Unknown
2:30 PM 98.6 °F - 37.4 °F 12% 29.74 in 6.2 mi South 6.9 mph - N/A   Unknown
3:00 PM 99 °F - 40 °F 7% 29.75 in 12 mi SSW 5.8 mph - -   Partly Cloudy
3:00 PM 98.6 °F - 41.0 °F 14% 29.74 in 6.2 mi SSW 5.8 mph - N/A   Unknown
3:30 PM 98.6 °F - 39.2 °F 13% 29.74 in 6.2 mi South 6.9 mph - N/A   Unknown
4:00 PM 98.6 °F - 41.0 °F 14% 29.74 in 6.2 mi South 8.1 mph - N/A   Unknown
4:30 PM 96.8 °F - 42.8 °F 16% 29.74 in 6.2 mi SSW 5.8 mph - N/A   Unknown
5:00 PM 94 °F - 45 °F 11% 29.76 in - South 5.8 mph - -  
5:00 PM 93.2 °F - 44.6 °F 19% 29.74 in 6.2 mi South 5.8 mph - N/A   Unknown
5:30 PM 91.4 °F - 46.4 °F 21% 29.77 in 6.2 mi South 4.6 mph - N/A   Unknown
6:00 PM 87 °F - 47 °F 16% 29.78 in - South 5.8 mph - -  
6:00 PM 87.8 °F - 48.2 °F 25% 29.77 in 6.2 mi South 5.8 mph - N/A   Unknown
6:30 PM 82.4 °F - 50.0 °F 32% 29.77 in 6.2 mi SSW 5.8 mph - N/A   Unknown
7:00 PM 80.6 °F 80.3 °F 53.6 °F 39% 29.80 in 6.2 mi Calm Calm - N/A   Unknown
7:30 PM 78.8 °F - 55.4 °F 44% 29.80 in 6.2 mi SSE 3.5 mph - N/A   Unknown
8:00 PM 77 °F - 56 °F 39% 29.81 in - SE 3.5 mph - -  
8:00 PM 77.0 °F - 57.2 °F 50% 29.80 in 6.2 mi SE 3.5 mph - N/A   Unknown
8:30 PM 77.0 °F - 57.2 °F 50% 29.80 in 6.2 mi East 3.5 mph - N/A   Unknown
9:00 PM 73 °F - 58 °F 49% 29.82 in - South 4.6 mph - -  
9:00 PM 73.4 °F - 57.2 °F 57% 29.83 in 6.2 mi South 4.6 mph - N/A   Unknown
9:30 PM 75.2 °F - 57.2 °F 53% 29.80 in 6.2 mi ESE 3.5 mph - N/A   Unknown
10:00 PM 73.4 °F - 57.2 °F 57% 29.80 in 6.2 mi North 5.8 mph - N/A   Unknown
10:30 PM 75.2 °F - 60.8 °F 61% 29.80 in 6.2 mi North 5.8 mph - N/A   Unknown
11:00 PM 71 °F - 60 °F 59% 29.81 in - NNW 6.9 mph - -  
11:00 PM 69.8 °F - 59.0 °F 68% 29.80 in 6.2 mi NNW 6.9 mph - N/A   Unknown
11:30 PM 71.6 °F - 60.8 °F 69% 29.80 in 6.2 mi North 1.2 mph - N/A   Unknown